Flag Weather past 2 weeks in Molepolole, Botswana

Now
81 °F

Passing clouds.


Feels Like: 79 °F
Forecast: 68 / 87 °F
Wind: 2 mph from North

Location: Seretse Khama International Airport

Current Time: Oct 31, 2014 at 2:04:03 AM

Latest Report: Oct 31, 2014 at 1:00 AM


Visibility: N/A

Pressure: 29.98 "Hg

Humidity: 20%

Dew point: 36 °F

Location of MolepololeLocation

Historic Weather in Molepolole — Graph

°F

Molepolole temperature yesterday

Maximum temperature yesterday: 99 °F (at 3:00 PM)
Minimum temperature yesterday: 64 °F (at 6:00 AM)
Average temperature yesterday: 82 °F

Past Weeks' High & Low Weather Summary

 TemperatureHumidityPressure
High99 °F (Oct 30, 3:00 PM)100% (Oct 16, 4:00 AM)30.36 "Hg (Oct 16, 4:00 AM)
Low55 °F (Oct 16, 5:00 AM)7% (Oct 16, 2:00 PM)29.71 "Hg (Oct 16, 3:00 PM)
Average76 °F32%30.05 "Hg
* Reported Oct 16 1:00 AM — Oct 31 1:00 AM, Molepolole, Weather by CustomWeather, © 2014

Note: Actual official high and low records may vary slightly from our data, if they occured in-between our weather recording intervals... More about our weather records

Advertising

Molepolole weather history for previous 24 hours

 ConditionsComfort  
Time TempWeatherWind HumidityBarometerVisibility
1:00 AM
Oct 31
81 °FPassing clouds.3 mph20%29.98 "HgN/A
12:00 AM82 °FPassing clouds.6 mph20%29.98 "HgN/A
10:00 PM
Oct 30
82 °FPassing clouds.7 mph15%29.98 "HgN/A
9:00 PM81 °FPassing clouds.3 mph16%29.95 "HgN/A
8:00 PM86 °FClear.5 mph13%29.95 "Hg10 mi
7:00 PM90 °FPassing clouds.2 mph11%29.92 "HgN/A
6:00 PM95 °FPassing clouds.1 mph9%29.92 "HgN/A
5:00 PM97 °FScattered clouds.2 mph9%29.92 "HgN/A
3:00 PM99 °FPassing clouds.2 mph10%29.95 "HgN/A
2:00 PM95 °FPassing clouds.6 mph11%29.98 "HgN/A
1:00 PM93 °FPassing clouds.6 mph11%30.01 "HgN/A
12:00 PM91 °FSunny.5 mph12%30.04 "Hg10 mi
11:00 AM88 °FPassing clouds.6 mph13%30.07 "HgN/A
10:00 AM86 °FSunny.2 mph13%30.07 "Hg10 mi
9:00 AM81 °FPassing clouds.7 mph16%30.09 "HgN/A
8:00 AM77 °FSunny.8 mph18%30.36 "Hg10 mi
7:00 AM72 °FSunny.2 mph27%30.07 "Hg10 mi
6:00 AM64 °FPassing clouds.6 mph34%30.07 "HgN/A
5:00 AM66 °FPassing clouds.7 mph32%30.04 "HgN/A
4:00 AM66 °FClear.7 mph35%30.01 "Hg10 mi
3:00 AM66 °FClear.8 mph32%30.01 "Hg10 mi
2:00 AM70 °FPassing clouds.6 mph31%30.01 "HgN/A
Weather by CustomWeather, © 2014

See weather overviewHow to use our weather pages